User: anonymous   Login
Location: Unspecified
(0.0000°N, 0.0000°E)
Time: 22:46:51
(UTC+00:00)
Language:

USA 267 - Orbit

View from above orbital plane
View from above orbital plane
View from above satellite
View from above satellite

Ground track
Ground track

The orbit data is extracted from the following two-line orbital elements,

1 41334U 16010A   18292.16504014 0.00000000  00000-0  00000-0 0    09
2 41334 123.0034 162.8797 0004500  92.0438 267.9562 13.41411814    00
Epoch (UTC): 19 October 2018 03:57:39
Eccentricity: 0.0004500
inclination: 123.0034°
perigee height: 1100 km
apogee height: 1107 km
right ascension of ascending node: 162.8797°
argument of perigee: 92.0438°
revolutions per day: 13.41411814
mean anomaly at epoch: 267.9562°
orbit number at epoch: 0

The dashed part of the orbit path shows where the satellite is in the earth's shadow,  

DLR